Погода в Буэнос-Айресе

Аргентина     34°36′56″S   58°26′06″W
темп.,
°C
ветер,
м/с
пор.,
м/с
влажн.,
%
обл.,
%
осадки,
мм/ч
давл.,
гПа
погр.,
м
12 июня, сб
сб1200:00+12зсз51461100 0.0 1017387
03:00+12зсз5136657 0.0 1016332
06:00+11зсз411701 0.0 1016278
09:00+12зсз38705 0.0 1017184
12:00+17зсз36557 0.0 1017217
15:00+20сз35503 0.0 1015340
18:00+18ссз36640 0.0 1014139
21:00+16ссз411790 0.0 1016275
13 июня, вс
вс1300:00+15ссз311840 0.0 1016266
03:00+14ссз312860 0.0 1017305
06:00+13ссз311870 0.0 1017296
09:00+13ссз411830 0.0 1018304
12:00+17ссз47620 0.0 1018347
15:00+19с47544 0.0 1016533
18:00+17с36671 0.0 1015150
21:00+16с410800 0.0 1017265
14 июня, пн
пн1400:00+14ссз39825 0.0 1018243
03:00+13ссз39875 0.0 1017235
06:00+13сз378962 0.0 1017203
09:00+13з268476 0.0 1019198
12:00+16юз246592 0.0 1020336
15:00+17ю466193 0.0 1020637
18:00+15ю5964100 0.0 1022662
21:00+13ююв5864100 0.0 1025896
15 июня, вт
вт1500:00+12ююв48665 0.0 1027717
03:00+10ю487164 0.0 1027574
06:00+9ю48700 0.0 1028500
09:00+8ю49670 0.0 1030431
12:00+11ююв56564 0.0 10311047
15:00+12ююв454626 0.0 10291386
18:00+12ююв464845 0.0 10291281
21:00+10ю365347 0.0 1030555
16 июня, ср
ср1600:00+9ююв48578 0.0 1030497
03:00+8ююв47624 0.0 1030451
06:00+7ююв47657 0.0 1030427
09:00+7юв3666100 0.0 1031391
12:00+9юв4557100 0.0 1031710
15:00+10вюв2350100 0.0 10301210
18:00+10вюв3555100 0.0 10291344
21:00+10юв356184 0.1 1030735